Weather History for Prague, Czech Republic

Change the Weather History Date:

Tuesday, August 20, 2013

  Actual Average Record
Temperature  
Mean Temperature 58 °F -  
Max Temperature 65 °F 68 °F 99 °F (2012)
Min Temperature 51 °F 49 °F 45 °F (2014)
Degree Days  
Heating Degree Days 7    
Growing Degree Days 8 (Base 50)    
Moisture  
Dew Point 52 °F    
Average Humidity 82    
Maximum Humidity 94    
Minimum Humidity 59    
Precipitation  
Precipitation 0.00 in 0.07 in - ()
Sea Level Pressure  
Sea Level Pressure 30.25 in    
Wind  
Wind Speed 9 mph ()    
Max Wind Speed 14 mph    
Max Gust Speed -    
Visibility 6.4 miles    
Events Rain    
Averages and records for this station are not official NWS values.
T = Trace of Precipitation, MM = Missing Value Source: Averaged Metar Reports

Daily Weather History Graph

Daily Weather History Graph

Search for Another Location

Airport:

Trip Planner

Search our weather history database for the weather conditions in past years. The results will help you decide how hot, cold, wet, or windy it might be!

Date:

Astronomy

Aug. 20, 2013 Rise Set
Actual Time 5:59 AM CEST 8:11 PM CEST
Civil Twilight 5:24 AM CEST 8:46 PM CEST
Nautical Twilight 4:40 AM CEST 9:30 PM CEST
Astronomical Twilight 3:49 AM CEST 10:20 PM CEST
Moon 7:27 PM CEST (8/20) 5:10 AM CEST (8/20)
Length of Visible Light 15h 22m
Length of Day
14h 11m
Waxing Gibbous, 99% of the Moon is Illuminated
Aug 20
Waxing Gibbous
Aug 21
Full
Aug 28
Last Quarter
Sep 5
New
Sep 12
First Quarter

Hourly Weather History & Observations

Time (CEST) Temp. Dew Point Humidity Pressure Visibility Wind Dir Wind Speed Gust Speed Precip Events Conditions
12:00 AM 59.0 °F 57.2 °F 94% 30.09 in 6.2 mi WSW 11.5 mph - N/A   Mostly Cloudy
12:30 AM 59.0 °F 57.2 °F 94% 30.09 in 6.2 mi West 11.5 mph - N/A   Partly Cloudy
1:00 AM 59.0 °F 57.2 °F 94% 30.12 in - West 12.7 mph - N/A   Clear
1:30 AM 59.0 °F 57.2 °F 94% 30.12 in - WSW 11.5 mph - N/A   Clear
2:00 AM 57 °F 55 °F 92% 30.13 in 12 mi WSW 6.7 mph - -   Partly Cloudy
2:00 AM 57.2 °F 55.4 °F 94% 30.12 in - West 8.1 mph - N/A   Clear
2:30 AM 57.2 °F 55.4 °F 94% 30.12 in - West 8.1 mph - N/A   Clear
3:00 AM 55.4 °F 53.6 °F 94% 30.15 in - West 5.8 mph - N/A   Clear
3:30 AM 55.4 °F 53.6 °F 94% 30.15 in - West 11.5 mph - N/A   Clear
4:00 AM 55.4 °F 53.6 °F 94% 30.15 in - West 8.1 mph - N/A   Clear
4:30 AM 55.4 °F 53.6 °F 94% 30.15 in - West 6.9 mph - N/A   Clear
5:00 AM 55.4 °F 53.6 °F 94% 30.15 in - West 8.1 mph - N/A   Clear
5:30 AM 55.4 °F 51.8 °F 88% 30.18 in - West 8.1 mph - N/A   Clear
6:00 AM 53.6 °F 51.8 °F 94% 30.18 in 6.2 mi WSW 6.9 mph - N/A   Partly Cloudy
6:30 AM 53.6 °F 51.8 °F 94% 30.18 in - WSW 8.1 mph - N/A   Clear
7:00 AM 53.6 °F 51.8 °F 94% 30.21 in 6.2 mi WSW 6.9 mph - N/A   Partly Cloudy
7:30 AM 55.4 °F 51.8 °F 88% 30.21 in 6.2 mi WSW 5.8 mph - N/A   Mostly Cloudy
8:00 AM 56 °F 53 °F 85% 30.22 in 25 mi SW 6.7 mph - -   Mostly Cloudy
8:00 AM 55.4 °F 51.8 °F 88% 30.21 in 6.2 mi SW 8.1 mph - N/A   Mostly Cloudy
8:30 AM 55.4 °F 53.6 °F 94% 30.21 in 6.2 mi WSW 10.4 mph - N/A   Mostly Cloudy
9:00 AM 55.4 °F 53.6 °F 94% 30.21 in 6.2 mi West 12.7 mph - N/A   Overcast
9:30 AM 57.2 °F 53.6 °F 88% 30.24 in 6.2 mi West 11.5 mph - N/A   Overcast
9:54 AM 57.2 °F 51.8 °F 82% 30.24 in 6.2 mi NW 12.7 mph - N/A   Mostly Cloudy
10:00 AM 57.2 °F 51.8 °F 82% 30.24 in 6.2 mi NW 12.7 mph - N/A   Light Drizzle
10:15 AM 57.2 °F 53.6 °F 88% 30.27 in 6.2 mi NNW 11.5 mph - N/A   Overcast
10:30 AM 57.2 °F 53.6 °F 88% 30.27 in 6.2 mi NNW 13.8 mph - N/A   Overcast
11:00 AM 57.2 °F 51.8 °F 82% 30.27 in 6.2 mi NNW 13.8 mph - N/A Rain Light Rain
11:04 AM 57.2 °F 51.8 °F 82% 30.27 in 6.2 mi NNW 12.7 mph - N/A   Overcast
11:30 AM 57.2 °F 53.6 °F 88% 30.27 in 6.2 mi NNW 11.5 mph - N/A   Overcast
12:00 PM 59.0 °F 51.8 °F 77% 30.30 in 6.2 mi NNW 11.5 mph - N/A   Overcast
12:30 PM 59.0 °F 53.6 °F 82% 30.30 in 6.2 mi NNW 11.5 mph - N/A   Overcast
1:00 PM 60.8 °F 53.6 °F 77% 30.30 in 6.2 mi NW 11.5 mph - N/A   Overcast
1:30 PM 60.8 °F 51.8 °F 72% 30.30 in 6.2 mi NNW 11.5 mph - N/A   Mostly Cloudy
2:00 PM 62 °F 51 °F 59% 30.30 in 28 mi NNW 13.4 mph - -   Partly Cloudy
2:00 PM 64.4 °F 53.6 °F 68% 30.30 in 6.2 mi North 13.8 mph - N/A   Mostly Cloudy
2:30 PM 62.6 °F 51.8 °F 68% 30.30 in 6.2 mi NW 12.7 mph - N/A   Mostly Cloudy
3:00 PM 62.6 °F 53.6 °F 72% 30.30 in 6.2 mi NNW 11.5 mph - N/A   Mostly Cloudy
3:30 PM 62.6 °F 51.8 °F 68% 30.30 in 6.2 mi NW 10.4 mph - N/A   Partly Cloudy
4:00 PM 64.4 °F 51.8 °F 64% 30.30 in 6.2 mi NW 13.8 mph - N/A   Scattered Clouds
4:30 PM 64.4 °F 50.0 °F 59% 30.30 in 6.2 mi NNW 12.7 mph - N/A   Scattered Clouds
4:41 PM 62.6 °F 51.8 °F 68% 30.30 in 6.2 mi North 11.5 mph - N/A Rain Light Rain Showers
4:52 PM 60.8 °F 53.6 °F 77% 30.30 in 6.2 mi North 10.4 mph - N/A   Partly Cloudy
5:00 PM 62.6 °F 53.6 °F 72% 30.30 in 6.2 mi North 6.9 mph - N/A   Partly Cloudy
5:30 PM 62.6 °F 51.8 °F 68% 30.30 in 6.2 mi NNW 5.8 mph - N/A   Partly Cloudy
6:00 PM 62.6 °F 51.8 °F 68% 30.30 in - NNW 8.1 mph - N/A   Clear
6:30 PM 62.6 °F 50.0 °F 63% 30.33 in 6.2 mi NNW 12.7 mph - N/A   Partly Cloudy
7:00 PM 59.0 °F 48.2 °F 67% 30.33 in 6.2 mi North 11.5 mph - N/A   Partly Cloudy
7:30 PM 59.0 °F 50.0 °F 72% 30.33 in 6.2 mi North 6.9 mph - N/A   Partly Cloudy
8:00 PM 58 °F 50 °F 68% 30.34 in 31 mi NNW 4.5 mph - -   Partly Cloudy
8:00 PM 57.2 °F 50.0 °F 77% 30.33 in - NNW 5.8 mph - N/A   Clear
8:30 PM 57.2 °F 50.0 °F 77% 30.33 in - NNW 4.6 mph - N/A   Clear
9:00 PM 55.4 °F 50.0 °F 82% 30.36 in - WNW 4.6 mph - N/A   Clear
9:30 PM 53.6 °F 50.0 °F 88% 30.36 in - West 4.6 mph - N/A   Clear
10:00 PM 53.6 °F 50.0 °F 88% 30.36 in 6.2 mi WSW 4.6 mph - N/A   Partly Cloudy
10:30 PM 53.6 °F 50.0 °F 88% 30.36 in 6.2 mi West 5.8 mph - N/A   Scattered Clouds
11:00 PM 51.8 °F 50.0 °F 94% 30.36 in 6.2 mi WSW 5.8 mph - N/A   Scattered Clouds
11:30 PM 51.8 °F 50.0 °F 94% 30.36 in 6.2 mi West 6.9 mph - N/A   Partly Cloudy